ONEWEB-0537, 56046

Orbit data source: Space-Track

ONEWEB-0537, 56046 is a payload satellite owned by One Web (NAA) (UK) in LEO that was launched on Sun, 26 Mar 2023 UTC via a LVM3 launch vehicle from the Sirharikota (SRI). Payload-class satellites include a variety of spacecraft equipped with specific instruments for various scientific and technological missions. These include communications satellites like Starlink; space stations such as the ISS; scientific satellites like the Hubble; Earth observation satellites from companies like Planet Labs, Umbra, and HawkEye 360; GPS; miniature CubeSats for education and research; and military/defense satellites.

Loading next visibility...
Identifier
56046, 2023-043A
Orbit
LEO
Country
Flag of UKUK
Related business
Manufacturer
One Web
Mission
Operational Commercial Communications
Bus & Motor
ARROW, Unknown motor
Mass
148 kg wet, ~140 kg dry
Launch date (UTC)
2023-03-26 (2 years ago)
Launch vehicle
LVM3
Launch site
Sirharikota (SRI)
Object type
Payload
Rocket body
Debris
Shape & HBR
Trap Box + 2 Pan, 2.5 m
Radar Cross Section
2.032 m², Large (>1 m²)

Expand to show TLE details & history
Last TLE update: 15 hours ago

TLE from 15 hours ago
0 ONEWEB-0537
1 56046U 23043A   25250.18191539 -.00000012  00000-0 -64654-4 0  9998
2 56046  87.9004 285.1705 0001990  99.3816 260.7540 13.16596523121722
Epoch: 2025-09-07T04:21Z
TLE epoch observation values (Epoch: 2025-09-07T04:21:57.489Z)
Latitude
-0.00003°
Longitude
-126.82411°
Altitude
1,200.887 km
Speed
7.253 km/s
True Right ascension
19h 00m 40s
True Declination
0° 00' 00"
Sunlit
Object was in daylight at epoch
Visualization orbit readout
Latitude
Unknown
Longitude
Unknown
Altitude
Unknown
Speed
Unknown
Apparent Right ascension
Unknown
Apparent Declination
Unknown
Sunlit
N/A
Visualization observer readout
Local Sidereal Time
11:47:46
Azimuth
Unknown
Elevation
Unknown
Doppler factor
Unknown
Orbital elements
Apogee altitude
1,196.365 km
Perigee altitude
1,193.351 km
Semi-major axis
7,572.995 km
Eccentricity
0.0002
Inclination
87.9004°
RAAN
285.1705°
Arg. of periapsis
99.3816°
True anomaly
260.73149°
Mean anomaly
260.754°
Eccentric anomaly
260.74275°
Mean motion
3.29338 °/min
Orbital period
109.31 mins
BSTAR
-0.000064654
Loading maneuver chart data...
Computing Atmospheric mass density...
Loading historical data...
Loading historical data...
Loading historical data...
Loading historical data...
Loading historical data...
Loading historical data...
Loading historical data...

Documentation

Showing up to 5 results
|